• In Deutschland
  • Länderverzeichnis
  • Für 7 Tage
  • Wassertemperatur
  • Satellitenkarten
  • Wetterkarte
  • Widgets
  • user-avatar
    Anmelden

    Stündliche Wetter Schorndorf

    Heute, 19 Februar, Montag

    Zeit Temperatur Niederschläge Wind Luftdruck Luftfeuchtigkeit
    00:00 -1°C° 0 mm 1 m/S 742 mmHg 91%
    01:00 -1°C° 0 mm 1 m/S 742 mmHg 92%
    02:00 -2°C° 0 mm 1 m/S 741 mmHg 92%
    03:00 -2°C° 0 mm 1 m/S 741 mmHg 92%
    04:00 -2°C° 0 mm 1 m/S 741 mmHg 92%
    05:00 -2°C° 0 mm 1 m/S 741 mmHg 92%
    06:00 -4°C° 0 mm 2 m/S 740 mmHg 92%
    07:00 -4°C° 0 mm 2 m/S 740 mmHg 91%
    08:00 -3°C° 0 mm 2 m/S 740 mmHg 87%
    09:00 -3°C° 0 mm 2 m/S 740 mmHg 83%
    10:00 -2°C° 0 mm 2 m/S 740 mmHg 79%
    11:00 +1°C° 0 mm 1 m/S 739 mmHg 75%
    12:00 +2°C° 0 mm 1 m/S 739 mmHg 71%
    13:00 +4°C° 0 mm 1 m/S 739 mmHg 67%
    14:00 +4°C° 0 mm 1 m/S 738 mmHg 67%
    15:00 +4°C° 0 mm 1 m/S 738 mmHg 67%
    16:00 +4°C° 0 mm 1 m/S 738 mmHg 67%
    17:00 +3°C° 0 mm 1 m/S 738 mmHg 72%
    18:00 +2°C° 0 mm 1 m/S 738 mmHg 77%
    19:00 +1°C° 0 mm 1 m/S 737 mmHg 82%
    20:00 -1°C° 0 mm 0 m/S 737 mmHg 83%
    21:00 -1°C° 0 mm 0 m/S 737 mmHg 84%
    22:00 -1°C° 0 mm 0 m/S 737 mmHg 86%
    23:00 -1°C° 0 mm 0 m/S 737 mmHg 86%

    Morgen, 20 Februar, Dienstag

    Zeit Temperatur Niederschläge Wind Luftdruck Luftfeuchtigkeit
    00:00 -1°C° 0 mm 0 m/S 737 mmHg 86%
    01:00 -2°C° 0 mm 0 m/S 737 mmHg 86%
    02:00 -2°C° 0 mm 0 m/S 737 mmHg 86%
    03:00 -2°C° 0 mm 0 m/S 737 mmHg 86%
    04:00 -2°C° 0 mm 0 m/S 736 mmHg 86%
    05:00 -2°C° 0 mm 0 m/S 736 mmHg 86%
    06:00 -2°C° 0 mm 0 m/S 736 mmHg 86%
    07:00 -2°C° 0 mm 0 m/S 736 mmHg 86%
    08:00 -1°C° 0 mm 0 m/S 736 mmHg 81%
    09:00 0°C° 0 mm 0 m/S 736 mmHg 76%
    10:00 +1°C° 0 mm 0 m/S 736 mmHg 71%
    11:00 +3°C° 0 mm 1 m/S 736 mmHg 67%
    12:00 +4°C° 0 mm 1 m/S 736 mmHg 63%
    13:00 +3°C° 0 mm 2 m/S 736 mmHg 59%
    14:00 +3°C° 0 mm 2 m/S 735 mmHg 61%
    15:00 +3°C° 0 mm 2 m/S 735 mmHg 62%
    16:00 +2°C° 0 mm 3 m/S 735 mmHg 63%
    17:00 +2°C° 0 mm 2 m/S 736 mmHg 68%
    18:00 +1°C° 0 mm 2 m/S 736 mmHg 74%
    19:00 -1°C° 0 mm 2 m/S 736 mmHg 80%
    20:00 -1°C° 0 mm 2 m/S 737 mmHg 81%
    21:00 -1°C° 0 mm 2 m/S 737 mmHg 83%
    22:00 -2°C° 0 mm 2 m/S 738 mmHg 85%
    23:00 -2°C° 0 mm 2 m/S 738 mmHg 86%

    übermorgen, 21 Februar, Mittwoch

    Zeit Temperatur Niederschläge Wind Luftdruck Luftfeuchtigkeit
    00:00 -2°C° 0 mm 2 m/S 738 mmHg 88%
    01:00 -3°C° 0 mm 2 m/S 738 mmHg 89%
    02:00 -3°C° 0 mm 2 m/S 738 mmHg 90%
    03:00 -3°C° 0 mm 2 m/S 739 mmHg 92%
    04:00 -3°C° 0 mm 2 m/S 739 mmHg 93%
    05:00 -3°C° 0 mm 2 m/S 739 mmHg 91%
    06:00 -3°C° 0 mm 2 m/S 739 mmHg 90%
    07:00 -3°C° 0 mm 2 m/S 739 mmHg 89%
    08:00 -2°C° 0 mm 3 m/S 739 mmHg 82%
    09:00 -1°C° 0 mm 3 m/S 740 mmHg 76%
    10:00 -1°C° 0 mm 3 m/S 740 mmHg 70%
    11:00 0°C° 0 mm 3 m/S 739 mmHg 65%
    12:00 +1°C° 0 mm 3 m/S 739 mmHg 60%
    13:00 +1°C° 0 mm 4 m/S 739 mmHg 55%
    14:00 +1°C° 0 mm 4 m/S 739 mmHg 55%
    15:00 +1°C° 0 mm 4 m/S 738 mmHg 55%
    16:00 +3°C° 0 mm 4 m/S 738 mmHg 56%
    17:00 +1°C° 0 mm 3 m/S 738 mmHg 61%
    18:00 0°C° 0 mm 3 m/S 738 mmHg 66%
    19:00 -1°C° 0 mm 3 m/S 738 mmHg 71%
    20:00 -1°C° 0 mm 3 m/S 738 mmHg 72%
    21:00 -2°C° 0 mm 3 m/S 738 mmHg 73%
    22:00 -3°C° 0 mm 4 m/S 738 mmHg 74%
    23:00 -3°C° 0 mm 4 m/S 738 mmHg 75%

    22 Februar, Donnerstag

    Zeit Temperatur Niederschläge Wind Luftdruck Luftfeuchtigkeit
    00:00 -4°C° 0 mm 4 m/S 738 mmHg 76%
    01:00 -4°C° 0 mm 4 m/S 738 mmHg 76%
    02:00 -4°C° 0 mm 4 m/S 737 mmHg 77%
    03:00 -4°C° 0 mm 4 m/S 737 mmHg 77%
    04:00 -4°C° 0 mm 4 m/S 737 mmHg 78%
    05:00 -4°C° 0 mm 4 m/S 737 mmHg 77%
    06:00 -5°C° 0 mm 5 m/S 737 mmHg 77%
    07:00 -5°C° 0 mm 5 m/S 736 mmHg 76%
    08:00 -5°C° 0 mm 5 m/S 736 mmHg 73%
    09:00 -4°C° 0 mm 6 m/S 736 mmHg 69%
    10:00 -4°C° 0 mm 6 m/S 736 mmHg 65%
    11:00 -3°C° 0 mm 6 m/S 736 mmHg 62%
    12:00 -2°C° 0 mm 6 m/S 736 mmHg 59%
    13:00 -1°C° 0 mm 6 m/S 736 mmHg 56%
    14:00 -1°C° 0 mm 6 m/S 736 mmHg 56%
    15:00 -1°C° 0 mm 6 m/S 735 mmHg 57%
    16:00 -1°C° 0 mm 6 m/S 735 mmHg 57%
    17:00 -2°C° 0 mm 6 m/S 735 mmHg 60%
    18:00 -1°C° 0 mm 5 m/S 736 mmHg 63%
    19:00 -2°C° 0 mm 5 m/S 736 mmHg 66%
    20:00 -4°C° 0 mm 5 m/S 736 mmHg 66%
    21:00 -4°C° 0 mm 5 m/S 736 mmHg 67%
    22:00 -4°C° 0 mm 5 m/S 736 mmHg 67%
    23:00 -5°C° 0 mm 5 m/S 736 mmHg 67%

    23 Februar, Freitag

    Zeit Temperatur Niederschläge Wind Luftdruck Luftfeuchtigkeit
    00:00 -5°C° 0 mm 5 m/S 736 mmHg 68%
    01:00 -5°C° 0 mm 5 m/S 736 mmHg 68%
    02:00 -5°C° 0 mm 5 m/S 736 mmHg 68%
    03:00 -5°C° 0 mm 5 m/S 736 mmHg 69%
    04:00 -4°C° 0 mm 4 m/S 735 mmHg 69%
    05:00 -4°C° 0 mm 4 m/S 735 mmHg 69%
    06:00 -6°C° 0 mm 5 m/S 736 mmHg 68%
    07:00 -6°C° 0 mm 5 m/S 736 mmHg 68%
    08:00 -5°C° 0 mm 5 m/S 736 mmHg 66%
    09:00 -4°C° 0 mm 5 m/S 736 mmHg 63%
    10:00 -4°C° 0 mm 5 m/S 736 mmHg 61%
    11:00 -2°C° 0 mm 5 m/S 736 mmHg 58%
    12:00 -1°C° 0 mm 5 m/S 736 mmHg 55%
    13:00 0°C° 0 mm 5 m/S 736 mmHg 52%
    14:00 0°C° 0 mm 5 m/S 736 mmHg 52%
    15:00 -1°C° 0 mm 6 m/S 736 mmHg 51%
    16:00 -1°C° 0 mm 6 m/S 736 mmHg 50%
    17:00 -1°C° 0 mm 5 m/S 737 mmHg 52%
    18:00 -2°C° 0 mm 5 m/S 737 mmHg 55%
    19:00 -4°C° 0 mm 5 m/S 737 mmHg 57%
    20:00 -5°C° 0 mm 5 m/S 738 mmHg 57%
    21:00 -6°C° 0 mm 5 m/S 738 mmHg 57%
    22:00 -6°C° 0 mm 5 m/S 739 mmHg 57%
    23:00 -6°C° 0 mm 5 m/S 739 mmHg 57%

    24 Februar, Samstag

    Zeit Temperatur Niederschläge Wind Luftdruck Luftfeuchtigkeit
    00:00 -7°C° 0 mm 5 m/S 739 mmHg 58%
    01:00 -7°C° 0 mm 5 m/S 740 mmHg 59%
    02:00 -8°C° 0 mm 5 m/S 740 mmHg 58%
    03:00 -8°C° 0 mm 5 m/S 740 mmHg 58%
    04:00 -8°C° 0 mm 4 m/S 740 mmHg 57%
    05:00 -8°C° 0 mm 4 m/S 741 mmHg 56%
    06:00 -9°C° 0 mm 4 m/S 741 mmHg 55%
    07:00 -9°C° 0 mm 4 m/S 741 mmHg 53%
    08:00 -8°C° 0 mm 4 m/S 742 mmHg 51%
    09:00 -8°C° 0 mm 5 m/S 742 mmHg 49%
    10:00 -7°C° 0 mm 5 m/S 742 mmHg 47%
    11:00 -6°C° 0 mm 5 m/S 742 mmHg 44%
    12:00 -6°C° 0 mm 5 m/S 742 mmHg 42%
    13:00 -4°C° 0 mm 4 m/S 742 mmHg 40%
    14:00 -4°C° 0 mm 4 m/S 742 mmHg 40%
    15:00 -4°C° 0 mm 4 m/S 742 mmHg 40%
    16:00 -5°C° 0 mm 4 m/S 742 mmHg 40%
    17:00 -5°C° 0 mm 4 m/S 742 mmHg 42%
    18:00 -7°C° 0 mm 4 m/S 742 mmHg 45%
    19:00 -7°C° 0 mm 3 m/S 743 mmHg 47%
    20:00 -7°C° 0 mm 3 m/S 743 mmHg 48%
    21:00 -7°C° 0 mm 3 m/S 743 mmHg 50%
    22:00 -8°C° 0 mm 3 m/S 743 mmHg 51%
    23:00 -8°C° 0 mm 3 m/S 743 mmHg 54%
    Mehr zeigen